This is the latest recevied weather packets stored in our database for station/object EA1FLU-10. If no packets are shown the sender has not sent any weather packets the latest 10 day(s).
| Time | Temp. | Humidity | Pressure | Rain* | Wind** | Luminosity | Snow |
|---|---|---|---|---|---|---|---|
| 1778134552 | 15.56° C | 51% | 1016.6 hPa | - | - | - | - |
| 1778132753 | 15.56° C | 52% | 1016.4 hPa | - | - | - | - |
| 1778130952 | 15.56° C | 52% | 1016.8 hPa | - | - | - | - |
| 1778129152 | 15.56° C | 52% | 1016.9 hPa | - | - | - | - |
| 1778127352 | 15.56° C | 52% | 1016.8 hPa | - | - | - | - |
| 1778125552 | 16.11° C | 51% | 1016.9 hPa | - | - | - | - |
| 1778123752 | 16.11° C | 51% | 1017.1 hPa | - | - | - | - |
| 1778121952 | 16.11° C | 51% | 1017 hPa | - | - | - | - |
| 1778120152 | 16.11° C | 51% | 1017.1 hPa | - | - | - | - |
| 1778118352 | 16.67° C | 51% | 1017.3 hPa | - | - | - | - |
| 1778116552 | 16.67° C | 51% | 1017.4 hPa | - | - | - | - |
| 1778114752 | 16.67° C | 50% | 1017.4 hPa | - | - | - | - |
| 1778112954 | 17.22° C | 50% | 1017.6 hPa | - | - | - | - |
| 1778111152 | 17.22° C | 50% | 1017.4 hPa | - | - | - | - |
| 1778109352 | 17.78° C | 49% | 1017.6 hPa | - | - | - | - |
| 1778107552 | 17.78° C | 49% | 1017.6 hPa | - | - | - | - |
| 1778105752 | 17.78° C | 48% | 1017.5 hPa | - | - | - | - |
| 1778103952 | 18.33° C | 48% | 1017.6 hPa | - | - | - | - |
| 1778102151 | 18.89° C | 47% | 1017.4 hPa | - | - | - | - |
| 1778100351 | 18.89° C | 47% | 1017.2 hPa | - | - | - | - |
| 1778098551 | 19.44° C | 46% | 1016.9 hPa | - | - | - | - |
| 1778096751 | 19.44° C | 45% | 1016.7 hPa | - | - | - | - |
| 1778094951 | 20° C | 44% | 1016.5 hPa | - | - | - | - |
| 1778093151 | 20.56° C | 43% | 1016.2 hPa | - | - | - | - |
| 1778091351 | 21.11° C | 42% | 1016.2 hPa | - | - | - | - |
* Rain since midnight (hover to see other rain measurements)
** Current wind speed in m/s (hover to see current wind gust speed)